Terug naar catalogus

FORMOSAT-5

ActiefWetenschapSSO
NORAD 42920·PAYLOAD·🇹🇼 Taiwan

Gelanceerd Aug 24, 2017 vanaf Vandenberg Space Force Base

Loading…

Volgende Passages (komende 24 uur)

TLE

VersSource: Space-Track

Epoch: Sep 14, 2026, 15:15 UTC

1 42920U 17049A   26257.63604093  .00000091  00000-0  34140-4 0  9997
2 42920  98.2188 330.9282 0011839 162.4351 197.7256 14.50907823479642

Volg FORMOSAT-5 in realtime met AllMySat

Download on the App Store